Location: Charlottesville
(38.0290°N, 78.4770°W)
Time: 10:54:57
(UTC-05:00)

Tiangong 2 - Pass Details

Date: 09 October 2017
Orbit: 386 x 390 km, 42.8° (Epoch: 11 December)

Event Time Altitude Azimuth Distance (km) Brightness Sun altitude
Exits shadow 04:59:50 15° 105° (ESE) 1,141 4.1 -27.6°
Drops below altitude 10° 05:00:46 10° 92° (E) 1,420 4.8 -27.5°
Sets 05:03:08 0° 77° (ENE) 2,280 6.3 -27.0°
